Date String (YYYY-MM-DD hh:mm:ss) UTC,Instrument flags,Ambient pressure (hPa),Sample flow (lpm),Bypass flow (lpm),Sample temperature (°C),Ambient temperature (°C),ASC tube jacket temperature (°C),LED temperature (°C),Box temperature (°C),Sample RH (%),Span deviation,Mass concentration (μg/m³),Mass concentration (μg/m³),Mass concentration (μg/m³)
DateTimeUTC,F1_M11,P_M11,Q1_M11,Q2_M11,T1_M11,T2_M11,T3_M11,T4_M11,T5_M11,U1_M11,ZSPAN_M11,X2_M11,X0_M11,X1_M11
2023-04-05 17:00:00,,0828.5,5.00,0.00,22.9,21.3,00.0,31.2,24.5,09.4,0000.4,0007.09,0010.71,0006.72
2023-04-05 17:01:00,,0828.6,5.02,0.00,22.9,21.3,00.0,31.2,24.5,09.5,0000.6,0007.02,0010.53,0006.66
2023-04-05 17:02:00,,0828.6,5.00,0.00,22.9,21.3,00.0,31.2,24.5,09.5,0000.7,0006.98,0011.05,0006.60
2023-04-05 17:03:00,,0828.6,4.99,0.00,22.9,21.3,00.0,31.2,24.5,09.6,0000.7,0006.96,0011.04,0006.56
2023-04-05 17:04:00,,0828.5,5.00,0.00,22.9,21.3,00.0,31.2,24.4,09.5,0000.9,0006.94,0011.04,0006.53
2023-04-05 17:05:00,,0828.5,5.00,0.00,22.9,21.3,00.0,31.2,24.4,09.7,0000.9,0006.91,0011.01,0006.49
2023-04-05 17:06:00,,0828.4,5.01,0.00,22.9,21.3,00.0,31.2,24.4,09.7,0000.7,0006.87,0010.95,0006.46
2023-04-05 17:07:00,,0828.4,4.99,0.00,22.9,21.3,00.0,31.2,24.5,09.7,0000.5,0006.87,0010.73,0006.44
2023-04-05 17:08:00,,0828.4,4.99,0.00,22.9,21.3,00.0,31.2,24.5,09.7,0000.8,0006.86,0010.27,0006.44
2023-04-05 17:09:00,,0828.4,5.00,0.00,22.9,21.3,00.0,31.2,24.5,09.7,0000.8,0006.86,0010.22,0006.43
2023-04-05 17:10:00,,0828.4,5.01,0.00,22.9,21.3,00.0,31.2,24.5,09.8,0000.7,0006.85,0010.17,0006.44
2023-04-05 17:11:00,,0828.4,5.01,0.00,22.9,21.3,00.0,31.2,24.4,09.7,0000.7,0006.87,0010.48,0006.45
2023-04-05 17:12:00,,0828.5,5.00,0.00,22.9,21.3,00.0,31.2,24.4,09.6,0001.0,0006.89,0010.51,0006.46
2023-04-05 17:13:00,,0828.5,5.00,0.00,22.9,21.3,00.0,31.2,24.4,09.7,0001.3,0006.87,0009.95,0006.46
2023-04-05 17:14:00,,0828.5,5.00,0.00,22.9,21.3,00.0,31.2,24.4,09.8,0001.1,0006.82,0009.84,0006.46
2023-04-05 17:15:00,,0828.4,4.99,0.00,22.9,21.3,00.0,31.2,24.4,09.9,0000.9,0006.80,0009.80,0006.44
2023-04-05 17:16:00,,0828.4,5.00,0.00,22.9,21.4,00.0,31.2,24.4,09.6,0001.1,0006.82,0009.87,0006.45
2023-04-05 17:17:00,,0828.5,5.00,0.00,22.9,21.4,00.0,31.2,24.4,09.7,0001.5,0006.85,0010.12,0006.47
2023-04-05 17:18:00,,0828.6,5.02,0.00,22.9,21.4,00.0,31.2,24.5,09.8,0001.5,0006.85,0010.34,0006.49
2023-04-05 17:19:00,,0828.6,4.99,0.00,22.9,21.3,00.0,31.2,24.5,09.9,0001.2,0006.87,0010.54,0006.50
2023-04-05 17:20:00,,0828.5,5.00,0.00,22.9,21.3,00.0,31.2,24.5,09.9,0001.3,0006.88,0010.89,0006.51
2023-04-05 17:21:00,,0828.5,4.99,0.00,22.9,21.4,00.0,31.2,24.5,10.0,0001.4,0006.90,0011.05,0006.52
2023-04-05 17:22:00,,0828.5,5.00,0.00,22.9,21.4,00.0,31.2,24.5,10.1,0000.9,0006.90,0010.93,0006.52
2023-04-05 17:23:00,,0828.5,5.01,0.00,22.9,21.4,00.0,31.2,24.5,10.0,0000.6,0006.91,0010.65,0006.52
2023-04-05 17:24:00,,0828.5,4.98,0.00,22.9,21.4,00.0,31.2,24.4,10.1,0000.3,0006.90,0010.99,0006.52
2023-04-05 17:25:00,,0828.5,5.02,0.00,22.9,21.4,00.0,31.2,24.4,10.2,0000.3,0006.90,0010.99,0006.51
2023-04-05 17:26:00,,0828.5,4.99,0.00,22.9,21.4,00.0,31.2,24.5,10.3,0000.6,0006.91,0011.08,0006.52
2023-04-05 17:27:00,,0828.5,4.99,0.00,22.9,21.4,00.0,31.2,24.4,10.3,0001.0,0006.90,0011.37,0006.52
2023-04-05 17:28:00,,0828.6,4.99,0.00,22.9,21.4,00.0,31.2,24.5,10.1,0001.0,0006.86,0011.16,0006.51
2023-04-05 17:29:00,,0828.6,5.00,0.00,22.9,21.4,00.0,31.2,24.4,10.1,0000.9,0006.82,0010.87,0006.49
2023-04-05 17:30:00,,0828.5,5.02,0.00,22.9,21.4,00.0,31.2,24.4,09.8,0000.9,0006.79,0010.68,0006.46
2023-04-05 17:31:00,,0828.6,5.00,0.00,22.9,21.3,00.0,31.2,24.5,09.9,0001.0,0006.76,0010.37,0006.44
2023-04-05 17:32:00,,0828.6,4.99,0.00,22.9,21.3,00.0,31.2,24.5,09.9,0001.5,0006.76,0010.24,0006.43
2023-04-05 17:33:00,,0828.6,5.02,0.00,22.9,21.3,00.0,31.2,24.4,10.1,0002.0,0006.74,0010.20,0006.41
2023-04-05 17:34:00,,0828.6,4.99,0.00,22.9,21.3,00.0,31.2,24.5,10.0,0001.8,0006.72,0010.13,0006.41
2023-04-05 17:35:00,,0828.6,4.99,0.00,22.9,21.3,00.0,31.2,24.5,09.9,0001.4,0006.70,0009.71,0006.40
2023-04-05 17:36:00,,0828.6,4.99,0.00,22.9,21.3,00.0,31.2,24.5,09.9,0001.6,0006.72,0009.72,0006.42
2023-04-05 17:37:00,,0828.6,5.02,0.00,22.9,21.3,00.0,31.2,24.5,10.0,0001.6,0006.73,0009.70,0006.43
2023-04-05 17:38:00,,0828.6,4.99,0.00,22.9,21.4,00.0,31.2,24.4,10.1,0001.6,0006.77,0010.06,0006.43
2023-04-05 17:39:00,,0828.6,5.00,0.00,22.9,21.4,00.0,31.2,24.4,10.1,0001.4,0006.81,0010.42,0006.44
2023-04-05 17:40:00,,0828.6,4.99,0.00,22.9,21.4,00.0,31.2,24.4,10.0,0001.4,0006.83,0010.46,0006.44
2023-04-05 17:41:00,,0828.6,5.00,0.00,22.9,21.4,00.0,31.2,24.4,10.2,0001.7,0006.85,0010.60,0006.46
2023-04-05 17:42:00,,0828.6,5.01,0.00,22.9,21.4,00.0,31.2,24.4,10.3,0001.9,0006.88,0011.38,0006.47
2023-04-05 17:43:00,,0828.6,5.02,0.00,22.9,21.4,00.0,31.2,24.5,10.3,0001.6,0006.90,0011.67,0006.49
2023-04-05 17:44:00,,0828.6,4.98,0.00,22.9,21.4,00.0,31.2,24.5,10.3,0001.3,0006.92,0012.44,0006.50
2023-04-05 17:45:00,,0828.6,5.01,0.00,22.9,21.4,00.0,31.2,24.4,10.5,0001.2,0006.93,0012.72,0006.51
2023-04-05 17:46:00,,0828.6,5.01,0.00,22.9,21.4,00.0,31.2,24.5,10.4,0001.4,0006.94,0013.02,0006.52
2023-04-05 17:47:00,,0828.6,4.99,0.00,22.9,21.3,00.0,31.2,24.4,10.2,0001.0,0006.95,0013.54,0006.51
2023-04-05 17:48:00,,0828.6,4.99,0.00,22.9,21.3,00.0,31.2,24.4,10.4,0000.8,0006.96,0013.54,0006.50
2023-04-05 17:49:00,,0828.6,5.01,0.00,22.9,21.3,00.0,31.2,24.4,10.2,0000.4,0006.93,0012.98,0006.49
2023-04-05 17:50:00,,0828.6,5.01,0.00,22.9,21.3,00.0,31.2,24.4,10.5,0000.5,0006.92,0013.17,0006.49
2023-04-05 17:51:00,,0828.6,5.00,0.00,22.9,21.4,00.0,31.2,24.5,10.4,0000.5,0006.91,0013.11,0006.49
2023-04-05 17:52:00,,0828.6,5.01,0.00,22.9,21.4,00.0,31.2,24.5,10.7,-000.1,0006.88,0012.98,0006.48
2023-04-05 17:53:00,,0828.7,4.99,0.00,22.9,21.4,00.0,31.2,24.5,10.6,-000.4,0006.84,0012.15,0006.47
2023-04-05 17:54:00,,0828.6,4.99,0.00,22.9,21.4,00.0,31.2,24.5,10.4,-000.6,0006.79,0011.75,0006.46
2023-04-05 17:55:00,,0828.6,5.00,0.00,22.9,21.4,00.0,31.2,24.5,10.6,-000.7,0006.78,0011.04,0006.44
2023-04-05 17:56:00,,0828.6,5.00,0.00,22.9,21.4,00.0,31.2,24.5,10.7,-000.5,0006.79,0010.73,0006.45
2023-04-05 17:57:00,,0828.6,5.00,0.00,22.9,21.4,00.0,31.2,24.5,10.5,-000.4,0006.79,0010.59,0006.45
2023-04-05 17:58:00,,0828.6,5.00,0.00,22.9,21.4,00.0,31.2,24.5,10.6,0000.1,0006.80,0010.65,0006.46
2023-04-05 17:59:00,,0828.6,5.00,0.00,22.9,21.4,00.0,31.2,24.5,10.6,0000.1,0006.81,0011.57,0006.48
